Location: Taukkyan
(23.1052°N, 94.0030°E)
Time: 08:08:08
(UTC+00:00)

CZ-2D R/B - Pass Details

Date: 06 July 2020
Orbit: 553 x 639 km, 97.9° (Epoch: 05 August)

Event Time Altitude Azimuth Distance (km) Brightness Sun altitude
Rises 20:44:41 0° 8° (N) 2,918 7.8 -27.5°
Reaches altitude 10° 20:46:54 10° 6° (N) 1,999 6.8 -27.1°
Enters shadow 20:50:11 49° 349° (N) 803 4.2 -26.5°
